When you browse on this site, cookies collect data to enhance your experience and personalize the content and advertising you see.
Visit our Privacy Policy to learn more. By continuing to use the site, you agree to this use of cookies and data.
  • In Hungary
  • List of Countries
  • For 7 days
  • Water Temperature
  • Weather Map
  • News
  • Weather Widgets
  • user-avatar
    Login

    Hourly Weather Sandatovskiy

    Today, 14 October, Monday

    Time Temperature Precipitation Wind Pressure Humidity
    00:00 +13°C° 0 mm 2 mps 759 mmHg 59%
    01:00 +13°C° 0 mm 2 mps 759 mmHg 60%
    02:00 +13°C° 0 mm 2 mps 759 mmHg 62%
    03:00 +12°C° 0 mm 2 mps 759 mmHg 67%
    04:00 +12°C° 0 mm 2 mps 759 mmHg 69%
    05:00 +12°C° 0 mm 2 mps 759 mmHg 71%
    06:00 +12°C° 0 mm 2 mps 759 mmHg 73%
    07:00 +13°C° 0 mm 2 mps 759 mmHg 68%
    08:00 +14°C° 0 mm 2 mps 759 mmHg 63%
    09:00 +16°C° 0 mm 2 mps 760 mmHg 58%
    10:00 +18°C° 0 mm 2 mps 760 mmHg 53%
    11:00 +20°C° 0 mm 1 mps 759 mmHg 47%
    12:00 +22°C° 0 mm 1 mps 759 mmHg 42%
    13:00 +22°C° 0 mm 1 mps 759 mmHg 40%
    14:00 +23°C° 0 mm 1 mps 759 mmHg 38%
    15:00 +24°C° 0 mm 1 mps 758 mmHg 36%
    16:00 +22°C° 0 mm 1 mps 758 mmHg 40%
    17:00 +21°C° 0 mm 1 mps 758 mmHg 44%
    18:00 +17°C° 0 mm 0 mps 758 mmHg 48%
    19:00 +19°C° 0 mm 1 mps 758 mmHg 51%
    20:00 +18°C° 0 mm 1 mps 758 mmHg 53%
    21:00 +17°C° 0 mm 2 mps 758 mmHg 55%
    22:00 +16°C° 0 mm 2 mps 758 mmHg 56%
    23:00 +16°C° 0 mm 2 mps 757 mmHg 57%

    Tomorrow, 15 October, Tuesday

    Time Temperature Precipitation Wind Pressure Humidity
    00:00 +15°C° 0 mm 2 mps 757 mmHg 59%
    01:00 +15°C° 0 mm 2 mps 757 mmHg 58%
    02:00 +15°C° 0 mm 2 mps 756 mmHg 58%
    03:00 +14°C° 0 mm 2 mps 756 mmHg 57%
    04:00 +14°C° 0 mm 2 mps 756 mmHg 57%
    05:00 +14°C° 0 mm 2 mps 756 mmHg 56%
    06:00 +13°C° 0 mm 2 mps 756 mmHg 56%
    07:00 +15°C° 0 mm 2 mps 756 mmHg 52%
    08:00 +16°C° 0 mm 2 mps 756 mmHg 48%
    09:00 +18°C° 0 mm 2 mps 756 mmHg 44%
    10:00 +20°C° 0 mm 2 mps 756 mmHg 39%
    11:00 +23°C° 0 mm 2 mps 756 mmHg 34%
    12:00 +24°C° 0 mm 2 mps 756 mmHg 29%
    13:00 +25°C° 0 mm 2 mps 755 mmHg 27%
    14:00 +26°C° 0 mm 1 mps 755 mmHg 26%
    15:00 +26°C° 0 mm 1 mps 755 mmHg 25%
    16:00 +25°C° 0 mm 1 mps 754 mmHg 29%
    17:00 +23°C° 0 mm 2 mps 754 mmHg 33%
    18:00 +20°C° 0 mm 2 mps 754 mmHg 37%
    19:00 +19°C° 0 mm 2 mps 754 mmHg 40%
    20:00 +19°C° 0 mm 2 mps 754 mmHg 42%
    21:00 +18°C° 0 mm 2 mps 755 mmHg 44%
    22:00 +17°C° 0 mm 2 mps 755 mmHg 46%
    23:00 +17°C° 0 mm 2 mps 754 mmHg 47%

    Day after tomorrow, 16 October, Wednesday

    Time Temperature Precipitation Wind Pressure Humidity
    00:00 +16°C° 0 mm 2 mps 754 mmHg 48%
    01:00 +16°C° 0 mm 2 mps 754 mmHg 50%
    02:00 +15°C° 0 mm 2 mps 754 mmHg 51%
    03:00 +15°C° 0 mm 2 mps 755 mmHg 52%
    04:00 +15°C° 0 mm 2 mps 755 mmHg 54%
    05:00 +14°C° 0 mm 2 mps 754 mmHg 55%
    06:00 +14°C° 0 mm 2 mps 754 mmHg 57%
    07:00 +14°C° 0 mm 3 mps 755 mmHg 54%
    08:00 +17°C° 0 mm 3 mps 755 mmHg 51%
    09:00 +18°C° 0 mm 3 mps 755 mmHg 47%
    10:00 +20°C° 0 mm 3 mps 755 mmHg 43%
    11:00 +21°C° 0 mm 4 mps 755 mmHg 39%
    12:00 +23°C° 0 mm 4 mps 755 mmHg 34%
    13:00 +25°C° 0 mm 4 mps 755 mmHg 34%
    14:00 +25°C° 0 mm 4 mps 755 mmHg 33%
    15:00 +25°C° 0 mm 4 mps 755 mmHg 33%
    16:00 +23°C° 0 mm 4 mps 755 mmHg 37%
    17:00 +21°C° 0 mm 4 mps 755 mmHg 42%
    18:00 +19°C° 0 mm 4 mps 755 mmHg 46%
    19:00 +19°C° 0 mm 4 mps 755 mmHg 49%
    20:00 +18°C° 0 mm 4 mps 755 mmHg 53%
    21:00 +17°C° 0 mm 4 mps 755 mmHg 56%
    22:00 +16°C° 0 mm 5 mps 755 mmHg 59%
    23:00 +15°C° 0 mm 5 mps 755 mmHg 62%

    17 October, Thursday

    Time Temperature Precipitation Wind Pressure Humidity
    00:00 +15°C° 0 mm 5 mps 755 mmHg 64%
    01:00 +14°C° 0 mm 5 mps 755 mmHg 67%
    02:00 +14°C° 0 mm 5 mps 755 mmHg 69%
    03:00 +14°C° 0 mm 5 mps 755 mmHg 72%
    04:00 +13°C° 0 mm 5 mps 755 mmHg 74%
    05:00 +13°C° 0 mm 5 mps 756 mmHg 76%
    06:00 +12°C° 0 mm 5 mps 756 mmHg 78%
    07:00 +13°C° 0 mm 5 mps 756 mmHg 73%
    08:00 +14°C° 0 mm 6 mps 756 mmHg 69%
    09:00 +15°C° 0 mm 6 mps 756 mmHg 64%
    10:00 +17°C° 0 mm 6 mps 756 mmHg 58%
    11:00 +20°C° 0 mm 6 mps 755 mmHg 52%
    12:00 +22°C° 0 mm 6 mps 755 mmHg 46%
    13:00 +22°C° 0 mm 6 mps 755 mmHg 44%
    14:00 +23°C° 0 mm 6 mps 755 mmHg 42%
    15:00 +23°C° 0 mm 6 mps 754 mmHg 40%
    16:00 +21°C° 0 mm 6 mps 754 mmHg 44%
    17:00 +20°C° 0 mm 5 mps 754 mmHg 49%
    18:00 +18°C° 0 mm 4 mps 754 mmHg 53%
    19:00 +17°C° 0 mm 5 mps 754 mmHg 55%
    20:00 +16°C° 0 mm 5 mps 754 mmHg 58%
    21:00 +16°C° 0 mm 5 mps 754 mmHg 60%
    22:00 +15°C° 0 mm 5 mps 754 mmHg 63%
    23:00 +14°C° 0 mm 4 mps 753 mmHg 66%

    18 October, Friday

    Time Temperature Precipitation Wind Pressure Humidity
    00:00 +14°C° 0 mm 4 mps 753 mmHg 69%
    01:00 +13°C° 0 mm 4 mps 753 mmHg 71%
    02:00 +13°C° 0 mm 3 mps 753 mmHg 74%
    03:00 +12°C° 0 mm 3 mps 753 mmHg 77%
    04:00 +12°C° 0 mm 3 mps 753 mmHg 80%
    05:00 +11°C° 0 mm 3 mps 753 mmHg 82%
    06:00 +11°C° 0 mm 3 mps 753 mmHg 84%
    07:00 +12°C° 0 mm 3 mps 753 mmHg 80%
    08:00 +14°C° 0 mm 2 mps 753 mmHg 75%
    09:00 +15°C° 0 mm 2 mps 753 mmHg 70%
    10:00 +17°C° 0 mm 2 mps 753 mmHg 64%
    11:00 +19°C° 0 mm 2 mps 753 mmHg 57%
    12:00 +20°C° 0 mm 2 mps 753 mmHg 51%
    13:00 +21°C° 0 mm 2 mps 753 mmHg 48%
    14:00 +23°C° 0 mm 2 mps 752 mmHg 46%
    15:00 +23°C° 0 mm 2 mps 752 mmHg 44%
    16:00 +21°C° 0 mm 2 mps 752 mmHg 48%
    17:00 +19°C° 0 mm 2 mps 752 mmHg 52%
    18:00 +18°C° 0 mm 2 mps 752 mmHg 56%
    19:00 +17°C° 0 mm 2 mps 752 mmHg 57%
    20:00 +16°C° 0 mm 2 mps 753 mmHg 58%
    21:00 +16°C° 0 mm 2 mps 753 mmHg 59%
    22:00 +15°C° 0 mm 2 mps 753 mmHg 59%
    23:00 +15°C° 0 mm 2 mps 753 mmHg 60%

    19 October, Saturday

    Time Temperature Precipitation Wind Pressure Humidity
    00:00 +14°C° 0 mm 2 mps 753 mmHg 60%
    01:00 +14°C° 0 mm 2 mps 753 mmHg 61%
    02:00 +14°C° 0 mm 2 mps 753 mmHg 62%
    03:00 +12°C° 0 mm 3 mps 753 mmHg 63%
    04:00 +12°C° 0 mm 3 mps 753 mmHg 65%
    05:00 +12°C° 0 mm 3 mps 754 mmHg 67%
    06:00 +11°C° 0 mm 3 mps 754 mmHg 69%
    07:00 +12°C° 0 mm 3 mps 754 mmHg 65%
    08:00 +14°C° 0 mm 3 mps 754 mmHg 61%
    09:00 +15°C° 0 mm 4 mps 754 mmHg 57%
    10:00 +18°C° 0 mm 4 mps 754 mmHg 52%
    11:00 +20°C° 0 mm 4 mps 755 mmHg 47%
    12:00 +21°C° 0 mm 4 mps 755 mmHg 42%
    13:00 +22°C° 0 mm 5 mps 754 mmHg 40%
    14:00 +22°C° 0 mm 5 mps 754 mmHg 39%
    15:00 +22°C° 0 mm 5 mps 754 mmHg 38%
    16:00 +21°C° 0 mm 4 mps 754 mmHg 42%
    17:00 +19°C° 0 mm 4 mps 754 mmHg 46%
    18:00 +18°C° 0 mm 4 mps 754 mmHg 50%
    19:00 +17°C° 0 mm 4 mps 754 mmHg 51%
    20:00 +16°C° 0 mm 5 mps 754 mmHg 53%
    21:00 +15°C° 0 mm 5 mps 755 mmHg 54%
    22:00 +15°C° 0 mm 5 mps 755 mmHg 55%
    23:00 +14°C° 0 mm 5 mps 755 mmHg 56%
    Show more